Weather History for Ankeny, IA

Change the Weather History Date:

Saturday, December 8, 2012

  Actual Average (KDSM) Record (KDSM)
Temperature  
Mean Temperature 28 °F 28 °F  
Max Temperature 37 °F 36 °F 69 °F (1946)
Min Temperature 19 °F 20 °F -14 °F (1917)
Degree Days  
Heating Degree Days 37 37  
Month to date heating degree days 285  
Since 1 July heating degree days 1543  
Cooling Degree Days 0 0  
Month to date cooling degree days 0  
Year to date cooling degree days 1066  
Moisture  
Dew Point 25 °F    
Average Humidity 76    
Maximum Humidity 93    
Minimum Humidity 65    
Precipitation  
Precipitation 0.00 in 0.05 in 0.68 in (2009)
Month to date precipitation 0.43  
Year to date precipitation 35.03  
Snow  
Snow 0.00 in 0.30 in 10.60 in (2009)
Month to date snowfall 2.2  
Since 1 July snowfall 5.1  
Snow Depth -    
Sea Level Pressure  
Sea Level Pressure 29.98 in    
Wind  
Wind Speed 5 mph (ESE)    
Max Wind Speed 10 mph    
Max Gust Speed -    
Visibility 9 miles    
Events Rain    
T = Trace of Precipitation, MM = Missing Value Source: NWS Daily Summary

Daily Weather History Graph

Daily Weather History Graph

Search for Another Location

Airport:

Trip Planner

Search our weather history database for the weather conditions in past years. The results will help you decide how hot, cold, wet, or windy it might be!

Date:

Astronomy

Dec. 08, 2012 Rise Set
Actual Time 7:29 AM CST 4:43 PM CST
Civil Twilight 6:57 AM CST 5:15 PM CST
Nautical Twilight 6:22 AM CST 5:49 PM CST
Astronomical Twilight 5:49 AM CST 6:23 PM CST
Moon 1:50 AM CST (12/8) 1:17 PM CST (12/8)
Length of Visible Light 10h 17m
Length of Day
9h 14m
Waning Crescent, 28% of the Moon is Illuminated
Dec 8
Waning Crescent
Dec 13
New
Dec 19
First Quarter
Dec 28
Full
Jan 4
Last Quarter

Hourly Weather History & Observations

Time (CST) Temp. Windchill Dew Point Humidity Pressure Visibility Wind Dir Wind Speed Gust Speed Precip Events Conditions
12:15 AM 33.8 °F 29.6 °F 24.8 °F 70% 29.96 in 10.0 mi North 4.6 mph - N/A   Scattered Clouds
12:35 AM 32.0 °F 26.4 °F 24.8 °F 75% 29.96 in 10.0 mi North 5.8 mph - N/A   Mostly Cloudy
12:55 AM 32.0 °F 26.4 °F 24.8 °F 75% 29.96 in 10.0 mi North 5.8 mph - N/A   Scattered Clouds
1:15 AM 32.0 °F 25.6 °F 24.8 °F 75% 29.95 in 10.0 mi North 6.9 mph - N/A   Mostly Cloudy
1:35 AM 30.2 °F 24.3 °F 23.0 °F 75% 29.95 in 10.0 mi North 5.8 mph - N/A   Scattered Clouds
1:55 AM 28.4 °F 21.2 °F 23.0 °F 80% 29.96 in 10.0 mi North 6.9 mph - N/A   Clear
2:15 AM 30.2 °F 24.3 °F 23.0 °F 75% 29.96 in 10.0 mi North 5.8 mph - N/A   Scattered Clouds
2:35 AM 28.4 °F 23.3 °F 21.2 °F 74% 29.97 in 10.0 mi North 4.6 mph - N/A   Scattered Clouds
2:55 AM 28.4 °F 21.2 °F 23.0 °F 80% 29.97 in 10.0 mi North 6.9 mph - N/A   Scattered Clouds
3:15 AM 26.6 °F 21.2 °F 21.2 °F 80% 29.97 in 10.0 mi North 4.6 mph - N/A   Clear
3:35 AM 26.6 °F 22.6 °F 21.2 °F 80% 29.97 in 10.0 mi North 3.5 mph - N/A   Clear
3:55 AM 26.6 °F 22.6 °F 21.2 °F 80% 29.97 in 10.0 mi North 3.5 mph - N/A   Scattered Clouds
4:15 AM 26.6 °F - 21.2 °F 80% 29.97 in 10.0 mi Calm Calm - N/A   Mostly Cloudy
4:35 AM 26.6 °F 21.2 °F 21.2 °F 80% 29.98 in 10.0 mi North 4.6 mph - N/A   Scattered Clouds
4:55 AM 24.8 °F - 19.4 °F 80% 29.98 in 10.0 mi Calm Calm - N/A   Clear
5:15 AM 24.8 °F - 21.2 °F 86% 29.99 in 10.0 mi Calm Calm - N/A   Clear
5:35 AM 24.8 °F - 19.4 °F 80% 29.98 in 10.0 mi Calm Calm - N/A   Clear
5:55 AM 21.2 °F - 17.6 °F 86% 29.99 in 10.0 mi Calm Calm - N/A   Clear
6:15 AM 21.2 °F - 17.6 °F 86% 30.00 in 10.0 mi Calm Calm - N/A   Clear
6:35 AM 21.2 °F - 17.6 °F 86% 30.01 in 10.0 mi Calm Calm - N/A   Clear
6:55 AM 19.4 °F - 17.6 °F 93% 30.01 in 10.0 mi Calm Calm - N/A   Clear
7:15 AM 21.2 °F - 17.6 °F 86% 30.00 in 10.0 mi Calm Calm - N/A   Clear
7:35 AM 21.2 °F - 17.6 °F 86% 30.00 in 10.0 mi Calm Calm - N/A   Clear
7:55 AM 21.2 °F - 17.6 °F 86% 30.01 in 10.0 mi Calm Calm - N/A   Clear
8:15 AM 21.2 °F - 19.4 °F 93% 30.01 in 10.0 mi Calm Calm - N/A   Clear
8:35 AM 24.8 °F - 19.4 °F 80% 30.02 in 10.0 mi Calm Calm - N/A   Clear
8:55 AM 26.6 °F - 21.2 °F 80% 30.02 in 10.0 mi Calm Calm - N/A   Clear
9:15 AM 28.4 °F - 23.0 °F 80% 30.01 in 10.0 mi Calm Calm - N/A   Clear
9:35 AM 30.2 °F 23.4 °F 24.8 °F 80% 30.02 in 10.0 mi ENE 6.9 mph - N/A   Clear
9:55 AM 32.0 °F 27.5 °F 24.8 °F 75% 30.02 in 10.0 mi East 4.6 mph - N/A   Clear
10:15 AM 33.8 °F 29.6 °F 24.8 °F 70% 30.03 in 10.0 mi ESE 4.6 mph - N/A   Clear
10:35 AM 35.6 °F 31.7 °F 24.8 °F 65% 30.02 in 10.0 mi East 4.6 mph - N/A   Clear
10:55 AM 35.6 °F - 24.8 °F 65% 30.02 in 10.0 mi Calm Calm - N/A   Clear
11:15 AM 35.6 °F 32.8 °F 24.8 °F 65% 30.01 in 10.0 mi ESE 3.5 mph - N/A   Clear
11:35 AM 35.6 °F 30.7 °F 24.8 °F 65% 30.00 in 10.0 mi ESE 5.8 mph - N/A   Clear
11:55 AM 35.6 °F 31.7 °F 24.8 °F 65% 30.01 in 10.0 mi East 4.6 mph - N/A   Clear
12:15 PM 37.4 °F 32.8 °F 26.6 °F 65% 30.00 in 10.0 mi ESE 5.8 mph - N/A   Clear
12:35 PM 37.4 °F 32.8 °F 26.6 °F 65% 29.99 in 10.0 mi East 5.8 mph - N/A   Clear
12:55 PM 37.4 °F - 26.6 °F 65% 29.99 in 10.0 mi Calm Calm - N/A   Clear
1:15 PM 37.4 °F 34.9 °F 26.6 °F 65% 29.98 in 10.0 mi SE 3.5 mph - N/A   Clear
1:35 PM 37.4 °F 32.1 °F 26.6 °F 65% 29.98 in 10.0 mi SE 6.9 mph - N/A   Clear
1:55 PM 37.4 °F 32.1 °F 26.6 °F 65% 29.97 in 10.0 mi SE 6.9 mph - N/A   Clear
2:15 PM 37.4 °F 32.8 °F 26.6 °F 65% 29.97 in 10.0 mi SE 5.8 mph - N/A   Clear
2:35 PM 37.4 °F 31.4 °F 26.6 °F 65% 29.96 in 10.0 mi SSE 8.1 mph - N/A   Clear
2:55 PM 37.4 °F 32.8 °F 26.6 °F 65% 29.96 in 10.0 mi SE 5.8 mph - N/A   Clear
3:15 PM 37.4 °F 32.1 °F 26.6 °F 65% 29.96 in 10.0 mi SE 6.9 mph - N/A   Clear
3:35 PM 37.4 °F 32.1 °F 26.6 °F 65% 29.96 in 10.0 mi SE 6.9 mph - N/A   Clear
3:55 PM 37.4 °F 32.1 °F 26.6 °F 65% 29.96 in 10.0 mi ESE 6.9 mph - N/A   Clear
4:15 PM 37.4 °F 32.8 °F 26.6 °F 65% 29.96 in 10.0 mi SE 5.8 mph - N/A   Clear
4:35 PM 37.4 °F 30.8 °F 26.6 °F 65% 29.96 in 10.0 mi ESE 9.2 mph - N/A   Clear
4:55 PM 35.6 °F 29.2 °F 28.4 °F 75% 29.96 in 10.0 mi SE 8.1 mph - N/A   Clear
5:15 PM 35.6 °F 29.2 °F 28.4 °F 75% 29.96 in 10.0 mi SE 8.1 mph - N/A   Clear
5:35 PM 35.6 °F 30.7 °F 28.4 °F 75% 29.96 in 10.0 mi SE 5.8 mph - N/A   Clear
5:55 PM 35.6 °F 29.9 °F 28.4 °F 75% 29.96 in 10.0 mi SE 6.9 mph - N/A   Clear
6:15 PM 35.6 °F 30.7 °F 28.4 °F 75% 29.97 in 10.0 mi SE 5.8 mph - N/A   Scattered Clouds
6:35 PM 35.6 °F 29.9 °F 28.4 °F 75% 29.96 in 7.0 mi SE 6.9 mph - N/A   Overcast
6:55 PM 35.6 °F 29.2 °F 30.2 °F 81% 29.96 in 10.0 mi SE 8.1 mph - N/A   Overcast
7:15 PM 35.6 °F 31.7 °F 30.2 °F 81% 29.96 in 7.0 mi SE 4.6 mph - N/A   Overcast
7:35 PM 35.6 °F 29.9 °F 30.2 °F 81% 29.96 in 7.0 mi ESE 6.9 mph - N/A   Drizzle
7:55 PM 32.0 °F 23.6 °F 26.6 °F 80% 29.97 in 5.0 mi SE 10.4 mph - N/A Rain Light Rain
8:15 PM 30.2 °F 23.4 °F 26.6 °F 86% 29.97 in 5.0 mi SE 6.9 mph - N/A Rain Light Freezing Rain
8:35 PM 32.0 °F 26.4 °F 28.4 °F 87% 29.97 in 7.0 mi SE 5.8 mph - N/A   Overcast
8:55 PM 33.8 °F 26.4 °F 28.4 °F 81% 29.97 in 7.0 mi SSE 9.2 mph - N/A   Overcast
9:15 PM 33.8 °F 28.6 °F 28.4 °F 81% 29.96 in 10.0 mi SE 5.8 mph - N/A   Overcast
9:35 PM 33.8 °F 28.6 °F 28.4 °F 81% 29.96 in 10.0 mi SE 5.8 mph - N/A   Overcast
9:55 PM 33.8 °F 27.7 °F 28.4 °F 81% 29.96 in 7.0 mi SE 6.9 mph - N/A   Scattered Clouds
10:15 PM 33.8 °F 27.7 °F 28.4 °F 81% 29.97 in 7.0 mi SE 6.9 mph - N/A   Scattered Clouds
10:35 PM 33.8 °F 25.8 °F 28.4 °F 81% 29.95 in 7.0 mi ESE 10.4 mph - N/A   Mostly Cloudy
10:55 PM 33.8 °F 25.8 °F 30.2 °F 87% 29.94 in 7.0 mi ESE 10.4 mph - N/A   Overcast
11:15 PM 35.6 °F 28.6 °F 30.2 °F 81% 29.94 in 7.0 mi ESE 9.2 mph - N/A   Overcast
11:35 PM 35.6 °F 28.6 °F 30.2 °F 81% 29.94 in 7.0 mi ESE 9.2 mph - N/A   Overcast
11:55 PM 35.6 °F 30.7 °F 30.2 °F 81% 29.95 in 10.0 mi SE 5.8 mph - N/A   Overcast